Date,TemperatureHighF,TemperatureAvgF,TemperatureLowF,DewpointHighF,DewpointAvgF,DewpointLowF,HumidityHigh,HumidityAvg,HumidityLow,PressureMaxIn,PressureMinIn,WindSpeedMaxMPH,WindSpeedAvgMPH,GustSpeedMaxMPH,PrecipitationSumIn
2013-2-1,28,24,22,28,23,21,98,96,96,30.47,30.20,3,1,0,0.00
2013-2-2,30,24,22,30,24,21,99,97,96,30.57,30.38,11,4,0,0.00
2013-2-3,25,23,21,24,22,20,97,96,96,30.38,30.16,13,8,0,0.00
2013-2-4,24,23,22,23,22,21,97,96,96,30.16,30.09,6,2,0,0.00
2013-2-5,26,24,22,25,23,21,97,97,96,30.13,29.88,7,2,0,0.00
2013-2-6,26,23,21,26,22,20,98,96,95,30.19,29.96,5,2,0,0.00
2013-2-7,27,22,19,27,21,18,99,96,95,30.18,30.07,9,4,0,0.00
2013-2-8,29,22,18,29,22,17,98,96,95,30.16,30.09,6,1,0,0.00
2013-2-9,25,18,15,24,17,14,97,95,94,30.29,30.08,6,1,0,0.00
2013-2-10,28,19,14,28,18,12,98,95,93,30.37,30.27,4,1,0,0.00
2013-2-11,18,17,15,17,16,14,95,94,94,30.32,30.24,4,1,0,0.00
2013-2-12,22,20,18,21,19,17,96,96,95,30.37,30.22,5,2,0,0.00
2013-2-13,26,23,18,25,22,17,97,96,94,30.34,30.13,6,2,0,0.00
2013-2-14,27,19,15,27,18,13,98,95,93,30.64,30.33,11,3,0,0.00
2013-2-15,25,21,18,24,20,17,97,96,95,30.67,30.48,9,3,0,0.00
2013-2-16,27,25,23,27,24,22,98,97,96,30.50,29.90,9,4,0,0.00
2013-2-17,26,21,19,25,20,18,97,96,95,30.18,29.89,4,1,0,0.00
2013-2-18,24,19,17,23,18,16,97,95,94,30.20,30.00,7,2,0,0.00
2013-2-19,33,22,17,33,21,16,99,96,93,30.00,29.82,6,2,0,0.00
2013-2-20,21,18,13,20,17,11,96,95,93,30.07,29.92,6,2,0,0.00
2013-2-21,17,15,13,16,14,11,95,94,93,30.15,30.07,7,2,0,0.00
2013-2-22,21,19,16,20,18,15,96,95,94,30.14,29.74,6,1,0,0.00
2013-2-23,22,18,15,21,17,14,96,95,94,30.28,29.72,4,0,0,0.00
2013-2-24,19,17,15,18,16,14,95,94,94,30.39,30.28,2,0,0,0.00
2013-2-25,22,18,16,21,17,15,96,95,94,30.29,30.01,8,1,0,0.00
2013-2-26,22,19,17,21,18,16,96,95,94,30.41,30.14,3,1,0,0.00
2013-2-27,23,18,15,22,17,13,97,95,93,30.46,30.37,5,2,0,0.00
2013-2-28,26,22,19,25,21,18,98,96,95,30.50,30.41,6,3,0,0.00